Погода в Астрахани

Погода в Астрахани : погода сейчас, прогноз погоды и архив. Всё, что Вы хотите узнать о погоде в Астрахани!

Хотите узнать прогноз погоды в Астрахани? Тогда Вам сюда: Погода в Астрахани

Поиск расширенной информации на нашем сайте:

Другие новости

Новости СМИ2

Главная страница сайта

Новости сайта

02.10.2013

Напоминаем, что на нашем новом сайте вы можете получить высокодетализированные прогнозы погоды по пунктам России, СНГ и мира (включающие важные для авиации метеовеличины, такие как направление и скорость ветра, видимость, явления погоды, количество и форма облачности, нижняя и верхняя граница облачности), а также ознакомиться с разнообразными материалами по авиационной метеорологии и подборкой полезных ссылок на эту тему.

Сайт Метеоцентр.Азия посвящён разработке технологий оптимизации авиаметеорологического обслуживания, включая проектирование и перспективное создание нескольких автоматизированных авиаметеорологических систем:
- система выпуска высокодетальных прогностических карт явлений погоды для нижнего воздушного пространства по России и ближнему зарубежью;
- система верификации прогнозов TAF (выпускаемых синоптиками официальных АМСГ РФ и ближнего зарубежья) и AUTOTAF (выпускаемых сайтом Метеоцентр.Азия) - выявление ошибок, онлайн-сопоставление с фактической погодой METAR, автоматическое внесение коррективов в прогнозы при резком отклонении фактической погоды от прогноза, подсчёт оправдываемости прогнозов по элементам и в целом;
- система обработки, анализа и отображения авиаметеорологической информации для применения провайдерами метеорологической информации.

Рекомендуем: http://angiosurgery.org/ флебология лечение вен.

Погода в Астрахани - сегодня

Время (UTC), дата Ветер
(°,м/с) 
Видим.   Явления Облачность Т
(°С)
Тd
(°С)
f(%) Тe
(°С)
Pmin
(гПа)
dP
(гПа)
Po
(мм)
O2
(г/м3)
Тmin Tmax R s Состояние
почвы
09 22.04.17 210 (ЮЗ) 10 км    10/10 1000 м 
[Sc]
+9.3 +2.1 61 +8  1012.3  1.3  761  296           
12 22.04.17 230 (ЮЗ) 11-21{21}  10 км    9/9 600 м кучево-дожд. 
[Cb cap]
+13.4 -0.7 38 +12  1011.5  -0.8  761  292           
15 22.04.17 240 (ЮЗ) 7-14{21}  10 км    9/9 300 м кучево-дожд. 
[Cb cap]
+11 +2 54 +9  1013.7  2.3  762  295    +13.7       
18 22.04.17 220 (ЮЗ) 4{14}  10 км    ясно 
+8.2 +2.6 68 +7  1017.1  3.3  765  299           
21 22.04.17 200 (Ю) 10 км    ясно 
+6 +2.5 78 +6  1017.7  0.7  765  301           
00 23.04.17 180 (Ю) 10 км    ясно 
+4.9 +1.9 81 +4  1018.2  0.6  766  303           
03 23.04.17 170 (Ю) 10 км    9/6 1000 м средняя 
[Sc|Ac trans]
+5 +1.9 80 +5  1018.3  0.1  766  303  +4        сухая 
06 23.04.17 160 (Ю) 10 км    10/0 средняя 
[As op]
+10.5 +2.6 58 +11  1017.5  -0.9  765  296           
09 23.04.17 080 (В) 10 км    10/0 средняя 
[As op]
+13.8 +2.4 46 +14  1014.6  -3  763  292           
12 23.04.17 100 (В) 4{11}  10 км    10/0 средняя, верхняя 
[Ac trans|Cs]
+13.7 +3.2 49 +13  1011.4  -3.2  760  291           
15 23.04.17 080 (В) 4{11}  10 км    9/0 средняя, верхняя 
[Ac trans|Ci]
+12.4 +4.5 59 +12  1005.1  -6.3  756  291    +14.7       
18 23.04.17 080 (В) 4{11}  10 км    6/0 верхняя 
[Ci fib]
+12.5 +6.9 69 +12  1001  -4.1  753  289           
21 23.04.17 140 (ЮВ) 5-11{11}  10 км    8/0 средняя, верхняя 
[Ac trans|Ci fib]
+15.1 +7.7 61 +15  1000.4  -0.6  752  286           
00 24.04.17 250 (З) 5{11}  10 км    4/0 верхняя 
[Ci fib]
+11.4 +7.4 76 +10  1000.6  0.2  752  290           
03 24.04.17 250 (З) 6-13{19}  10 км  пыльный позёмок  4/0 средняя, верхняя 
[Ac trans|Ci sp]
+9.8 -0.1 50 +8  1005.2  4.6  756  294  +9.8        сухая 
06 24.04.17 240 (ЮЗ) 10-18{18}  10 км  пыльный позёмок  10/10 600 м 
[Sc]
+10.3 +1.8 56 +8  1006.7  1.6  757  294  +9.1         
09 24.04.17 240 (ЮЗ) 10-16{20}  10 км  пыльный позёмок  8/6 600 м средняя 
[Sc|Ac trans]
+13.3 +2.6 48 +12  1007.5  0.7  758  291           
12 24.04.17 250 (З) 7-15{17}  10 км  пыльный позёмок  4/4 1000 м 
[Sc]
+14.5 +2.2 43 +14  1009.3  1.9  759  290           
15 24.04.17 270 (З) 4{15}  10 км  пыльный позёмок  3/3 1000 м средняя 
[Sc|Ac trans]
+13.4 +3.1 50 +13  1012.7  3.3  761  292    +14.8       
18 24.04.17 210 (ЮЗ) 2{10}  10 км    ясно 
+9.6 +3.2 64 +10  1015.8  3.2  764  297           
21 24.04.17 210 (ЮЗ) 10 км    3/0 средняя 
[Ac trans]
+8.4 +4 74 +8  1017.3  1.4  765  298           
00 25.04.17 240 (ЮЗ) 10 км    9/5 600 м средняя 
[Sc|Ac trans]
+9 +2.8 65 +8  1018.6  1.4  766  298           
03 25.04.17 220 (ЮЗ) 10 км    9/9 600 м кучево-дожд. 
[Cb cap]
+9 +2 61 +8  1020.7  2.1  767  299  +8.2        сухая 
06 25.04.17 230 (ЮЗ) 6-10{11}  10 км    9/5 600 м кучево-дожд., средняя, верхняя 
[Cb cap|Ac trans|Ci sp]
+9.5 +2 59 +8  1022.6  1.9  769  299           
09 25.04.17 230 (ЮЗ) 7-12{12}  10 км    9/8 600 м средняя 
[Sc|Ac trans]
+11.5 +1.2 49 +10  1023.7  1.1  770  297           
Время (UTC), дата Ветер
(°,м/с) 
Видим.   Явления Облачность Т
(°С)
Тd
(°С)
f(%) Тe
(°С)
Pmin
(гПа)
dP
(гПа)
Po
(мм)
O2
(г/м3)
Тmin Tmax R s Состояние
почвы

Для получения пояснительной информации подведите курсор к названию столбца.

ПОГОДА в Астрахани - архив

Всё, что Вы хотите узнать о погоде в Астрахани - удобно и подробно!

Выберите нужную дату (начиная с 1 января 2015* года) и нажмите кнопку "Найти".
Будут отображены архивные сводки погоды по пункту Астрахань, начиная с указанной даты.


Отображать данные в формате CSV (для использования в таблицах Excel)


Внимание! Наш архив погоды предназначен исключительно для личного некоммерческого использования в познавательных целях. Если Вам необходимы официальные справки о состоянии погоды (для производственных, юридических, коммерческих и т.п. целей), обращайтесь в органы Росгидромета.

*Примечание: данная дата относится к архиву по метеостанциям СССР (Россия, СНГ, Балтия).
Архив по метеостанциям Зарубежной Европы и Азии (кроме Китая) хранится 10 дней, по другим регионам земного шара (Китай, Африка, Америка, Австралия, Океания) - 1 день.

Астрахань - район местоположения метеостанции


Название, широта, долгота, высота метеостанции:
Астрахань (обсерватория) 46.3°ш. 47.9°д. -23 м над ур. моря [Российская Федерация]

Дополнительная информация

В oтличие oт бoльшинства пoгoдных сайтoв мы публикуем пoдрoбную метеoинфoрмацию в детальнoм прoфессиoнальнoм фoрмате.

Характеристики температуры и влажнoсти вoздуха измеряются на высoте 2 м в тени вдали oт зданий и деревьев.
Скoрoсть ветра измеряется на высoте 10 м (на урoвне рoста челoвека скoрoсть ветра ниже в 1.5-2 раза). Если метеoстанция нахoдится в гoрoде или в лесу, тo скoрoсть ветра занижена на 2-4 м/с пo сравнению с oткрытым местoм. Скoрoсть ветра над акватoриями крупных рек и oзёр, а также на вершинах хoлмoв на 2-5 м/с выше, чем в oбычных услoвиях.
Атмoсфернoе давление в разных тoчках местнoсти мoжет значительнo oтличаться oт давления на метеoстанции, в зависимoсти oт услoвий рельефа (при пoдъёме на 10 м давление пoнижается примернo на 1 мм рт.ст.).